N0945 YPPH-YPPH

Flight info

Callsign N0945
Flight time 0h 28m
Altitude 2500
Route YPPH DCT YPPH
Aircraft P28A/L-SDFGIRWY/S

Departure

Time 2026-04-28 06:23
Airport Perth International Airport (YPPH)

Arrival

Time 2026-04-28 06:52
Airport Perth International Airport (YPPH)
Time Latitude Longitude Altitude Speed Heading
2026-04-28 05:57 -31.92876 115.95955 42 ft 0 kts 47°
2026-04-28 06:13 -31.92882 115.95965 43 ft 10 kts 153°
2026-04-28 06:13 -31.92982 115.95995 43 ft 17 kts 180°
2026-04-28 06:13 -31.93032 115.96054 45 ft 11 kts 95°
2026-04-28 06:13 -31.92963 115.96109 45 ft 9 kts
2026-04-28 06:14 -31.92877 115.96132 43 ft 17 kts
2026-04-28 06:14 -31.92820 115.96132 43 ft 0 kts
2026-04-28 06:18 -31.92805 115.96135 43 ft 10 kts
2026-04-28 06:18 -31.92752 115.96149 44 ft 0 kts 17°
2026-04-28 06:20 -31.92746 115.96152 44 ft 8 kts 24°
2026-04-28 06:20 -31.92754 115.96243 48 ft 19 kts 104°
2026-04-28 06:20 -31.92790 115.96413 52 ft 13 kts 104°
2026-04-28 06:21 -31.92793 115.96425 52 ft 0 kts 103°
2026-04-28 06:21 -31.92806 115.96491 52 ft 25 kts 110°
2026-04-28 06:22 -31.92861 115.96749 54 ft 26 kts 103°
2026-04-28 06:22 -31.92931 115.96818 52 ft 22 kts 184°
2026-04-28 06:22 -31.93239 115.96734 61 ft 64 kts 187°
2026-04-28 06:22 -31.93723 115.96544 171 ft 78 kts 188°
2026-04-28 06:23 -31.94222 115.96639 330 ft 74 kts 141°
2026-04-28 06:23 -31.94655 115.96964 538 ft 74 kts 145°
2026-04-28 06:23 -31.95097 115.97272 758 ft 74 kts 147°
2026-04-28 06:23 -31.95534 115.97564 978 ft 71 kts 143°
2026-04-28 06:24 -31.95975 115.97824 1161 ft 73 kts 144°
2026-04-28 06:24 -31.96432 115.98107 1341 ft 82 kts 144°
2026-04-28 06:24 -31.97022 115.98539 1364 ft 116 kts 143°
2026-04-28 06:24 -31.97773 115.99074 1368 ft 135 kts 144°
2026-04-28 06:25 -31.98602 115.99657 1386 ft 140 kts 143°
2026-04-28 06:25 -31.99435 116.00238 1528 ft 139 kts 144°
2026-04-28 06:25 -32.00249 116.00818 1669 ft 138 kts 144°
2026-04-28 06:25 -32.00942 116.01356 1774 ft 139 kts 141°
2026-04-28 06:26 -32.01754 116.02001 1901 ft 142 kts 141°
2026-04-28 06:26 -32.02579 116.02644 2024 ft 141 kts 141°
2026-04-28 06:26 -32.03397 116.03273 2149 ft 140 kts 141°
2026-04-28 06:26 -32.04205 116.03886 2264 ft 134 kts 142°
2026-04-28 06:27 -32.04998 116.04481 2392 ft 136 kts 142°
2026-04-28 06:27 -32.05783 116.05091 2514 ft 135 kts 141°
2026-04-28 06:27 -32.06586 116.05723 2547 ft 141 kts 135°
2026-04-28 06:27 -32.07124 116.06681 2542 ft 142 kts 118°
2026-04-28 06:28 -32.07748 116.07596 2541 ft 145 kts 136°
2026-04-28 06:28 -32.08606 116.08240 2544 ft 147 kts 146°
2026-04-28 06:28 -32.09513 116.08817 2545 ft 147 kts 147°
2026-04-28 06:28 -32.10420 116.09384 2553 ft 148 kts 147°
2026-04-28 06:29 -32.11339 116.09958 2559 ft 150 kts 148°
2026-04-28 06:29 -32.12265 116.10534 2560 ft 151 kts 147°
2026-04-28 06:29 -32.13200 116.11117 2553 ft 152 kts 148°
2026-04-28 06:29 -32.14133 116.11699 2560 ft 152 kts 147°
2026-04-28 06:30 -32.15072 116.12285 2551 ft 152 kts 148°
2026-04-28 06:30 -32.15983 116.12851 2557 ft 149 kts 146°
2026-04-28 06:30 -32.16900 116.13424 2554 ft 150 kts 149°
2026-04-28 06:30 -32.17823 116.14002 2555 ft 151 kts 148°
2026-04-28 06:31 -32.18671 116.14667 2537 ft 143 kts 126°
2026-04-28 06:31 -32.18874 116.15763 2551 ft 140 kts 88°
2026-04-28 06:31 -32.18857 116.16912 2556 ft 140 kts 88°
2026-04-28 06:31 -32.18848 116.18074 2551 ft 142 kts 90°
2026-04-28 06:32 -32.18820 116.19235 2551 ft 140 kts 89°
2026-04-28 06:32 -32.18796 116.20392 2552 ft 142 kts 89°
2026-04-28 06:32 -32.18775 116.21551 2551 ft 141 kts 88°
2026-04-28 06:32 -32.18757 116.22706 2558 ft 140 kts 88°
2026-04-28 06:33 -32.18742 116.23860 2557 ft 142 kts 88°
2026-04-28 06:33 -32.18732 116.25009 2553 ft 141 kts 88°
2026-04-28 06:33 -32.18731 116.26185 2566 ft 141 kts 89°
2026-04-28 06:33 -32.18981 116.27275 2553 ft 144 kts 126°
2026-04-28 06:34 -32.19784 116.27990 2559 ft 147 kts 142°
2026-04-28 06:34 -32.20627 116.28682 2554 ft 148 kts 141°
2026-04-28 06:34 -32.21450 116.29385 2564 ft 148 kts 141°
2026-04-28 06:34 -32.22336 116.30018 2553 ft 150 kts 158°
2026-04-28 06:35 -32.23132 116.30687 2551 ft 141 kts 114°
2026-04-28 06:35 -32.23073 116.31784 2555 ft 142 kts 59°
2026-04-28 06:35 -32.22206 116.32324 2554 ft 150 kts 11°
2026-04-28 06:35 -32.21320 116.32352 2559 ft 151 kts 358°
2026-04-28 06:36 -32.20466 116.31699 2547 ft 162 kts 307°
2026-04-28 06:36 -32.19967 116.30518 2559 ft 160 kts 297°
2026-04-28 06:36 -32.19499 116.29325 2561 ft 160 kts 297°
2026-04-28 06:36 -32.19031 116.28125 2563 ft 162 kts 297°
2026-04-28 06:37 -32.18565 116.26915 2566 ft 162 kts 296°
2026-04-28 06:37 -32.18383 116.25599 2552 ft 165 kts 272°
2026-04-28 06:37 -32.18364 116.24242 2555 ft 166 kts 272°
2026-04-28 06:37 -32.18323 116.22888 2556 ft 165 kts 275°
2026-04-28 06:38 -32.18234 116.21524 2562 ft 168 kts 276°
2026-04-28 06:38 -32.18136 116.20148 2556 ft 169 kts 276°
2026-04-28 06:38 -32.18039 116.18778 2554 ft 167 kts 276°
2026-04-28 06:38 -32.17939 116.17417 2558 ft 167 kts 276°
2026-04-28 06:39 -32.17843 116.16034 2551 ft 169 kts 275°
2026-04-28 06:39 -32.17735 116.14677 2554 ft 164 kts 276°
2026-04-28 06:39 -32.17635 116.13354 2559 ft 166 kts 276°
2026-04-28 06:39 -32.17543 116.11983 2552 ft 167 kts 275°
2026-04-28 06:40 -32.17441 116.10612 2546 ft 168 kts 276°
2026-04-28 06:40 -32.17099 116.09342 2539 ft 163 kts 313°
2026-04-28 06:40 -32.16163 116.08680 2546 ft 157 kts 344°
2026-04-28 06:40 -32.15121 116.08480 2536 ft 150 kts 13°
2026-04-28 06:41 -32.14228 116.09046 2544 ft 147 kts 47°
2026-04-28 06:41 -32.13840 116.09895 2516 ft 147 kts 76°
2026-04-28 06:41 -32.13917 116.11093 2511 ft 149 kts 103°
2026-04-28 06:41 -32.13727 116.12228 2492 ft 145 kts 50°
2026-04-28 06:42 -32.12838 116.12746 2500 ft 147 kts 14°
2026-04-28 06:42 -32.11813 116.12655 2505 ft 153 kts 345°
2026-04-28 06:42 -32.11000 116.11846 2490 ft 160 kts 300°
2026-04-28 06:42 -32.10795 116.10585 2525 ft 149 kts 300°
2026-04-28 06:43 -32.10233 116.09565 2570 ft 151 kts 309°
2026-04-28 06:43 -32.09653 116.08500 2555 ft 156 kts 311°
2026-04-28 06:43 -32.08917 116.07568 2554 ft 155 kts 319°
2026-04-28 06:43 -32.08157 116.06667 2554 ft 155 kts 319°
2026-04-28 06:44 -32.07355 116.05830 2549 ft 153 kts 331°
2026-04-28 06:44 -32.06410 116.05264 2521 ft 154 kts 338°
2026-04-28 06:44 -32.05461 116.04684 2507 ft 152 kts 336°
2026-04-28 06:44 -32.04562 116.04078 2514 ft 150 kts 333°
2026-04-28 06:45 -32.03674 116.03459 2503 ft 146 kts 333°
2026-04-28 06:45 -32.02795 116.02842 2505 ft 148 kts 334°
2026-04-28 06:45 -32.01911 116.02222 2505 ft 148 kts 335°
2026-04-28 06:45 -32.01003 116.01633 2501 ft 147 kts 343°
2026-04-28 06:46 -32.00012 116.01416 2500 ft 144 kts
2026-04-28 06:46 -31.99010 116.01360 2499 ft 143 kts
2026-04-28 06:46 -31.98015 116.01325 2499 ft 143 kts
2026-04-28 06:46 -31.97017 116.01290 2501 ft 144 kts
2026-04-28 06:47 -31.96033 116.01278 2500 ft 143 kts
2026-04-28 06:47 -31.95040 116.01350 2502 ft 142 kts 11°
2026-04-28 06:47 -31.94059 116.01495 2500 ft 142 kts 10°
2026-04-28 06:47 -31.93090 116.01689 2497 ft 141 kts 18°
2026-04-28 06:48 -31.92170 116.02059 2503 ft 139 kts 21°
2026-04-28 06:48 -31.91342 116.02609 2493 ft 139 kts 53°
2026-04-28 06:48 -31.91162 116.03321 2495 ft 140 kts 91°
2026-04-28 06:48 -31.91498 116.04392 2497 ft 141 kts 120°
2026-04-28 06:49 -31.92356 116.04918 2496 ft 149 kts 177°
2026-04-28 06:49 -31.93362 116.04550 2504 ft 153 kts 199°
2026-04-28 06:49 -31.94180 116.03803 2497 ft 153 kts 242°
2026-04-28 06:49 -31.94181 116.02574 2498 ft 153 kts 295°
2026-04-28 06:50 -31.93606 116.01647 2292 ft 134 kts 330°
2026-04-28 06:50 -31.92749 116.01119 2284 ft 141 kts 328°
2026-04-28 06:50 -31.92089 116.00227 2085 ft 144 kts 306°
2026-04-28 06:50 -31.91617 115.99227 1542 ft 139 kts 296°
2026-04-28 06:51 -31.91342 115.98117 875 ft 144 kts 280°
2026-04-28 06:51 -31.91683 115.97189 468 ft 119 kts 199°
2026-04-28 06:51 -31.92395 115.96956 321 ft 97 kts 185°
2026-04-28 06:51 -31.92995 115.96792 124 ft 80 kts 181°
2026-04-28 06:52 -31.93476 115.96659 51 ft 61 kts 181°
2026-04-28 06:52 -31.93788 115.96577 56 ft 34 kts 196°
2026-04-28 06:52 -31.94039 115.96509 57 ft 43 kts 191°
2026-04-28 06:52 -31.94285 115.96452 55 ft 41 kts 192°
2026-04-28 06:53 -31.94448 115.96454 54 ft 20 kts 131°
2026-04-28 06:53 -31.94475 115.96507 52 ft 0 kts 104°
2026-04-28 06:53 -31.94476 115.96511 52 ft 0 kts 104°
2026-04-28 06:55 -31.94480 115.96505 52 ft 3 kts 290°
2026-04-28 06:55 -31.94459 115.96447 54 ft 19 kts 285°
2026-04-28 06:55 -31.94429 115.96293 54 ft 11 kts 283°
2026-04-28 06:56 -31.94402 115.96197 53 ft 13 kts 309°
2026-04-28 06:56 -31.94324 115.96183 54 ft 11 kts 15°
2026-04-28 06:56 -31.94248 115.96206 55 ft 13 kts 11°
2026-04-28 06:56 -31.94148 115.96240 55 ft 16 kts 10°
2026-04-28 06:57 -31.94040 115.96262 56 ft 15 kts
2026-04-28 06:57 -31.93941 115.96239 55 ft 14 kts 347°
2026-04-28 06:57 -31.93842 115.96211 54 ft 15 kts 343°
2026-04-28 06:57 -31.93736 115.96187 52 ft 16 kts 353°
2026-04-28 06:58 -31.93625 115.96186 50 ft 15 kts 13°
2026-04-28 06:58 -31.93528 115.96222 50 ft 13 kts 28°
2026-04-28 06:58 -31.93451 115.96276 48 ft 12 kts 16°
2026-04-28 06:58 -31.93377 115.96307 48 ft 10 kts 18°
2026-04-28 06:59 -31.93316 115.96323 48 ft 8 kts 13°
2026-04-28 06:59 -31.93262 115.96331 49 ft 8 kts 358°
2026-04-28 06:59 -31.93230 115.96303 49 ft 6 kts 294°
2026-04-28 06:59 -31.93195 115.96233 48 ft 14 kts 317°
2026-04-28 07:00 -31.93144 115.96133 47 ft 8 kts 292°
2026-04-28 07:00 -31.93112 115.96074 46 ft 10 kts 309°
2026-04-28 07:00 -31.93063 115.96014 44 ft 8 kts 321°
2026-04-28 07:00 -31.93016 115.96013 43 ft 7 kts 342°
2026-04-28 07:01 -31.92948 115.95946 41 ft 17 kts 319°
2026-04-28 07:01 -31.92893 115.95895 40 ft 6 kts 346°
2026-04-28 07:01 -31.92860 115.95913 41 ft 6 kts 46°
2026-04-28 07:01 -31.92853 115.95922 41 ft 0 kts 44°